CZ-4C DEB, 42671

Orbit data source: Space-Track

CZ-4C DEB, 42671 is space debris in SSO originally from a launch on Thu, 26 Nov 2015 UTC launched from the Taiyaun Space Center, China (TSC). Debris objects in space refer to the collection of defunct objects orbiting the Earth. Examples of debris include non-operational satellites, rocket bodies, and fragments generated from explosions, collisions, or faulty payload assembly.

Loading next visibility...
Identifier
42671, 2015-069D
Orbit
SSO
Country
Flag of CNCN / PRC
Related business
Manufacturer
Unknown
Mission
Spacecraft
Bus & Motor
Unknown
Mass
Unknown
Launch date (UTC)
2015-11-26 (10 years ago)
Launch vehicle
Unknown
Launch site
Taiyaun Space Center, China (TSC)
Object type
Payload
Rocket body
Debris
Shape & HBR
Unknown shape, 0.1 m
Radar Cross Section
Small (<0.1 m²)

Expand to show TLE details & history
Last TLE update: 1 day ago

TLE from 1 day ago
0 CZ-4C DEB
1 42671U 15069D   25314.85895277  .00009091  00000-0  12230-2 0  9996
2 42671  97.8085 178.4763 0118118 358.8723   1.2202 14.74664704524282
Epoch: 2025-11-10T20:36Z
TLE epoch observation values (Epoch: 2025-11-10T20:36:53.519Z)
Latitude
-0.00003°
Longitude
178.99949°
Altitude
566.265 km
Speed
7.623 km/s
True Right ascension
11h 53m 54s
True Declination
0° 00' 00"
Sunlit
Object was in daylight at epoch
Visualization orbit readout
Latitude
Unknown
Longitude
Unknown
Altitude
Unknown
Speed
Unknown
Apparent Right ascension
Unknown
Apparent Declination
Unknown
Sunlit
N/A
Visualization observer readout
Local Sidereal Time
01:52:31
Azimuth
Unknown
Elevation
Unknown
Doppler factor
Unknown
Orbital elements
Apogee altitude
726.194 km
Perigee altitude
560.324 km
Semi-major axis
7,021.396 km
Eccentricity
0.01181
Inclination
97.8085°
RAAN
178.4763°
Arg. of periapsis
358.8723°
True anomaly
1.24945°
Mean anomaly
1.2202°
Eccentric anomaly
1.23478°
Mean motion
3.68899 °/min
Orbital period
97.59 mins
BSTAR
0.001223
Loading maneuver chart data...
Computing Atmospheric mass density...
Loading historical data...
Loading historical data...
Loading historical data...
Loading historical data...
Loading historical data...
Loading historical data...
Loading historical data...
Other satellites on launch #69 in the year 2015 (2015-11-26 UTC)

Documentation

Showing up to 5 results
|